Weather History for KBGM - February, 2013

Change the Weather History Date:

Monday, February 11, 2013

  Actual Average Record
Temperature  
Mean Temperature 34 °F 24 °F  
Max Temperature 38 °F 31 °F 54 °F (1999)
Min Temperature 30 °F 17 °F -14 °F (1979)
Degree Days  
Heating Degree Days 31 41  
Month to date heating degree days 490 459  
Since 1 July heating degree days 4233 4531  
Cooling Degree Days 0 0  
Month to date cooling degree days 0 0  
Year to date cooling degree days 0 0  
Moisture  
Dew Point 28 °F    
Average Humidity 68    
Maximum Humidity 96    
Minimum Humidity 39    
Precipitation  
Precipitation 0.07 in 0.08 in 0.95 in (1981)
Month to date precipitation 0.78 0.88  
Year to date precipitation 3.03 3.33  
Snow  
Snow T in 0.60 in 5.10 in (1955)
Month to date snowfall 11.2 6.7  
Since 1 July snowfall 45.4 53.5  
Snow Depth 6.00 in    
Sea Level Pressure  
Sea Level Pressure 29.81 in    
Wind  
Wind Speed 9 mph (SSW)    
Max Wind Speed 17 mph    
Max Gust Speed 26 mph    
Visibility 8 miles    
Events Rain , Snow    
T = Trace of Precipitation, MM = Missing Value Source: NWS Daily Summary

Daily Weather History Graph

Daily Weather History Graph

Search for Another Location

Airport or City:

Trip Planner

Search our weather history database for the weather conditions in past years. The results will help you decide how hot, cold, wet, or windy it might be!

Date:

Astronomy

Feb. 11, 2013 Rise Set
Actual Time 7:05 AM EST 5:31 PM EST
Civil Twilight 6:36 AM EST 6:00 PM EST
Nautical Twilight 6:03 AM EST 6:33 PM EST
Astronomical Twilight 5:30 AM EST 7:06 PM EST
Moon 7:25 AM EST (2/11) 7:29 PM EST (2/11)
Length of Visible Light 11h 24m
Length of Day
10h 26m
Waxing Crescent, 3% of the Moon is Illuminated
Feb 11
Waxing Crescent
Feb 17
First Quarter
Feb 25
Full
Mar 4
Last Quarter
Mar 11
New

Hourly Weather History & Observations

Time (EST) Temp. Windchill Dew Point Humidity Pressure Visibility Wind Dir Wind Speed Gust Speed Precip Events Conditions
12:53 AM 30.0 °F 21.7 °F 10.0 °F 43% 30.13 in 10.0 mi SSE 9.2 mph - N/A   Clear
1:53 AM 30.9 °F 22.8 °F 10.9 °F 43% 30.10 in 10.0 mi South 9.2 mph 19.6 mph N/A   Overcast
2:53 AM 30.9 °F 20.2 °F 17.1 °F 57% 30.06 in 10.0 mi South 15.0 mph 26.5 mph N/A   Overcast
3:53 AM 30.0 °F 21.7 °F 19.9 °F 66% 30.03 in 10.0 mi South 9.2 mph - 0.00 in   Overcast
4:53 AM 30.9 °F 22.2 °F 19.9 °F 64% 29.96 in 10.0 mi SSE 10.4 mph - 0.00 in   Overcast
5:26 AM 32.0 °F 23.6 °F 19.4 °F 60% 29.91 in 10.0 mi SSE 10.4 mph 20.7 mph N/A   Overcast
5:53 AM 32.0 °F 22.5 °F 19.0 °F 59% 29.94 in 10.0 mi SSE 12.7 mph 21.9 mph N/A   Overcast
6:53 AM 30.9 °F 21.2 °F 25.0 °F 79% 29.92 in 7.0 mi South 12.7 mph 24.2 mph 0.00 in Snow Light Snow
7:00 AM 30.2 °F 21.3 °F 26.6 °F 86% 29.88 in 4.0 mi South 10.4 mph 19.6 mph 0.00 in Snow Light Snow
7:18 AM 30.2 °F 22.6 °F 28.4 °F 93% 29.88 in 2.5 mi South 8.1 mph - 0.02 in Rain Light Freezing Rain
7:32 AM 30.2 °F 21.9 °F 28.4 °F 93% 29.87 in 2.5 mi South 9.2 mph - 0.03 in Rain Light Freezing Rain
7:53 AM 30.9 °F 22.8 °F 28.9 °F 92% 29.92 in 2.5 mi South 9.2 mph - 0.04 in Rain Light Freezing Rain
8:02 AM 30.2 °F 22.6 °F 28.4 °F 93% 29.86 in 5.0 mi South 8.1 mph - 0.00 in   Overcast
8:28 AM 32.0 °F 22.1 °F 30.2 °F 93% 29.86 in 10.0 mi South 13.8 mph 20.7 mph 0.00 in   Overcast
8:53 AM 33.1 °F 23.4 °F 30.0 °F 89% 29.89 in 10.0 mi South 13.8 mph 23.0 mph 0.00 in   Overcast
9:53 AM 33.1 °F 23.9 °F 30.9 °F 92% 29.86 in 10.0 mi SSE 12.7 mph - N/A   Overcast
10:53 AM 34.0 °F 25.5 °F 30.9 °F 89% 29.83 in 10.0 mi SSE 11.5 mph - N/A   Overcast
11:24 AM 33.8 °F 25.3 °F 30.2 °F 87% 29.77 in 10.0 mi SSE 11.5 mph 18.4 mph N/A   Overcast
11:53 AM 34.0 °F 26.6 °F 32.0 °F 92% 29.80 in 10.0 mi South 9.2 mph - N/A   Overcast
12:53 PM 35.1 °F 28.6 °F 33.1 °F 92% 29.74 in 10.0 mi South 8.1 mph - N/A   Overcast
1:53 PM 36.0 °F 31.1 °F 33.1 °F 89% 29.71 in 10.0 mi South 5.8 mph - N/A   Overcast
2:53 PM 37.0 °F 31.6 °F 34.0 °F 89% 29.67 in 10.0 mi SSE 6.9 mph - N/A   Overcast
3:53 PM 37.0 °F 33.3 °F 34.0 °F 89% 29.67 in 10.0 mi South 4.6 mph - 0.01 in   Overcast
4:49 PM 37.4 °F 32.1 °F 35.6 °F 93% 29.60 in 10.0 mi South 6.9 mph - N/A   Overcast
4:53 PM 37.9 °F 32.7 °F 35.1 °F 89% 29.65 in 10.0 mi South 6.9 mph - N/A   Overcast
5:53 PM 37.0 °F 33.3 °F 35.1 °F 93% 29.66 in 10.0 mi WSW 4.6 mph - N/A   Overcast
6:53 PM 36.0 °F 26.0 °F 33.1 °F 89% 29.70 in 10.0 mi NNW 17.3 mph 23.0 mph 0.00 in Rain Light Rain
7:43 PM 33.8 °F 27.0 °F 30.2 °F 87% 29.69 in 6.0 mi NW 8.1 mph 17.3 mph 0.01 in Snow Light Snow
7:53 PM 34.0 °F 28.0 °F 30.9 °F 89% 29.73 in 5.0 mi NW 6.9 mph - 0.01 in Snow Light Snow
8:01 PM 33.8 °F 27.7 °F 30.2 °F 87% 29.69 in 5.0 mi WNW 6.9 mph - 0.00 in Snow Light Snow
8:53 PM 33.1 °F 28.7 °F 30.0 °F 89% 29.73 in 6.0 mi West 4.6 mph - 0.01 in   Overcast
9:13 PM 32.0 °F 27.5 °F 30.2 °F 93% 29.68 in 8.0 mi WSW 4.6 mph - N/A   Overcast
9:48 PM 33.8 °F - 30.2 °F 87% 29.68 in 8.0 mi Calm Calm - N/A   Overcast
9:53 PM 33.1 °F - 28.9 °F 85% 29.73 in 8.0 mi Calm Calm - N/A   Overcast
10:06 PM 32.0 °F 25.6 °F 30.2 °F 93% 29.68 in 8.0 mi WSW 6.9 mph - N/A   Overcast
10:53 PM 33.1 °F 24.4 °F 28.0 °F 82% 29.71 in 10.0 mi West 11.5 mph 19.6 mph N/A   Overcast
11:12 PM 33.8 °F 27.7 °F 28.4 °F 81% 29.68 in 10.0 mi WNW 6.9 mph - N/A   Overcast
11:53 PM 33.1 °F 26.9 °F 28.0 °F 82% 29.71 in 10.0 mi SW 6.9 mph - N/A   Overcast